Wind_Speed
49 49 48 47 47 46 46 46 46 45 45 45 45 45 45 46 47 47 48 47 47 46 45 45 43 38 36 39 42 45 46 45 45 44 41 40 41 41 42 43 44 45
49 48 47 47 47 48 47 47 46 46 46 46 46 46 47 48 48 49 48 48 47 46 44 43 41 39 39 41 42 43 44 45 44 42 40 41 41 42 43 44 44 45
49 47 46 46 47 48 48 47 47 47 47 47 47 47 48 49 49 49 49 47 46 45 42 40 39 38 38 39 40 42 44 44 42 41 41 41 41 42 43 43 44 44
48 47 46 46 48 49 49 48 48 48 48 48 48 49 49 49 49 49 48 46 44 43 41 39 38 36 36 38 40 42 42 41 40 40 40 40 41 41 41 42 43 43
48 48 48 48 49 50 50 49 49 49 49 49 49 49 49 49 49 48 46 44 43 41 39 38 36 36 36 38 40 40 39 38 39 39 38 38 39 40 41 42 43 43
50 50 51 51 51 51 51 50 50 50 50 50 50 50 49 48 47 45 44 42 41 39 37 36 36 36 37 38 38 38 37 37 37 36 36 37 39 40 41 42 42 42
52 52 53 53 53 52 51 51 51 51 50 50 49 48 47 46 44 43 41 39 38 37 35 35 36 36 36 36 36 36 35 35 34 35 36 38 39 40 41 41 40 39
52 53 53 52 52 51 50 50 50 49 49 48 47 46 44 43 42 40 38 37 35 34 34 34 34 34 34 34 34 34 33 33 33 35 37 38 39 39 39 38 38 39
51 51 50 50 49 49 48 48 48 47 46 45 44 43 41 41 39 37 36 34 33 32 32 32 32 32 32 33 32 32 32 33 34 36 37 38 37 37 36 37 38 40
49 48 47 47 46 46 46 46 44 43 42 42 41 40 39 38 37 35 33 32 32 31 31 31 32 32 32 31 31 31 32 34 35 37 37 36 35 35 35 37 39 40
45 45 44 43 43 43 43 42 40 39 39 39 38 38 37 36 33 32 31 31 31 30 30 31 31 32 31 31 31 32 34 35 36 36 35 35 35 35 36 38 39 40
43 42 42 40 40 40 40 39 37 37 37 37 37 36 35 33 32 32 31 31 30 30 30 30 31 31 32 32 33 34 36 36 36 35 34 35 36 35 36 39 40 41
42 41 39 38 38 38 38 37 37 36 36 36 35 34 33 32 32 31 31 30 30 30 30 30 31 31 33 34 35 36 36 36 36 35 34 35 35 36 37 39 41 42
42 40 38 37 37 38 38 38 37 36 35 34 34 33 32 32 31 30 30 30 30 30 30 30 30 31 33 35 36 36 36 36 36 35 35 35 35 36 38 40 42 43
43 40 38 38 38 39 39 39 37 36 35 34 33 33 33 31 30 30 30 30 30 31 31 31 30 32 34 35 36 36 36 36 35 35 35 35 36 37 39 41 43 44
42 41 40 40 40 41 40 39 37 36 35 35 34 33 32 31 30 30 31 31 31 31 32 32 32 34 35 36 36 36 37 37 35 35 35 36 37 37 39 42 43 44
42 41 41 41 41 42 41 39 38 37 36 36 34 33 32 31 31 31 31 32 32 32 32 32 33 34 35 36 37 37 38 37 36 35 35 36 37 37 40 43 44 44
42 42 42 42 41 42 41 39 38 37 37 37 35 34 33 32 33 33 33 33 34 34 33 33 34 36 36 37 38 38 38 37 36 36 36 37 37 38 42 45 44 45
42 42 42 42 41 41 40 39 38 38 38 39 38 36 35 35 35 36 35 35 36 35 35 35 37 37 37 38 38 38 37 36 36 36 36 36 38 41 44 45 43 46
42 42 42 40 39 39 38 38 38 38 39 40 40 39 38 38 38 37 37 37 37 37 37 38 38 38 38 39 38 38 37 36 36 36 35 37 40 42 44 43 44 49
40 41 40 38 37 37 37 37 37 38 39 41 41 41 40 40 39 39 39 39 39 39 39 40 39 39 39 38 37 37 36 36 37 36 36 38 41 42 43 43 46 51
39 38 38 37 35 35 36 37 37 38 40 41 42 42 41 41 40 40 39 40 40 40 40 39 39 39 38 37 36 37 37 37 37 36 37 40 42 43 43 44 47 51
37 36 37 36 35 35 36 37 37 38 40 41 42 42 42 41 41 40 40 40 41 40 39 38 39 38 37 36 37 37 37 37 36 36 38 41 43 44 44 46 48 50
36 36 36 36 35 35 36 36 36 37 39 40 41 42 42 42 42 41 40 40 40 38 38 39 39 37 36 37 38 37 37 37 36 37 40 42 44 45 45 47 49 50
35 35 35 35 34 35 36 36 36 37 39 40 41 42 42 42 42 41 40 38 38 37 38 39 38 36 37 39 37 36 37 37 37 40 42 43 45 46 46 47 50 49
33 34 34 35 34 35 36 36 36 37 38 39 40 41 42 42 43 41 39 38 39 39 38 38 37 38 40 39 37 38 39 39 40 42 43 45 46 46 46 48 50 49
Wind_Direction
252 255 257 260 262 264 265 267 268 270 271 273 275 277 280 282 284 286 287 287 288 288 289 290 292 291 285 284 286 290 295 299 301 303 304 304 306 308 309 311 311 312
252 255 257 260 262 264 265 266 267 268 270 272 275 278 281 283 284 285 286 286 287 287 288 290 290 288 286 285 285 288 294 299 301 303 303 305 307 309 311 312 312 312
252 254 255 258 261 263 264 265 266 268 270 273 276 279 281 282 284 284 285 285 286 286 287 287 286 286 286 286 287 290 295 299 301 303 304 307 309 310 312 312 312 312
251 252 253 255 258 261 263 265 266 268 271 275 277 279 280 281 282 283 284 284 285 285 286 285 284 284 284 285 289 293 296 299 301 304 307 309 310 311 312 312 313 313
249 251 252 254 256 259 262 264 267 270 273 275 277 278 278 279 280 281 282 283 284 284 284 283 283 283 284 286 291 294 297 299 302 305 307 309 310 312 313 314 315 315
248 249 251 253 256 258 261 265 268 270 273 274 275 276 277 278 279 280 280 281 281 282 282 281 281 283 285 288 291 294 297 300 302 304 307 308 310 312 314 315 316 316
247 249 251 253 256 259 262 265 267 269 271 273 273 274 275 276 277 278 278 278 279 279 279 280 280 282 285 287 290 294 297 299 302 304 306 307 310 312 315 316 317 318
247 249 251 254 256 259 261 263 265 267 269 270 271 272 273 274 274 275 276 276 276 276 276 277 279 282 285 288 291 293 295 299 302 304 306 308 311 314 316 317 319 320
247 249 252 254 256 258 259 261 263 264 266 267 268 269 270 271 272 273 273 273 273 272 273 275 278 282 286 289 291 292 295 300 303 305 307 310 313 316 318 319 320 321
247 249 251 252 254 255 256 258 260 261 262 264 265 267 268 269 270 271 270 270 269 270 272 276 280 283 287 288 288 291 297 301 304 306 309 311 314 317 319 320 321 323
245 246 248 248 250 251 253 255 257 258 260 261 263 264 266 268 268 268 268 267 268 269 272 276 281 284 286 286 288 293 298 301 303 306 308 311 314 317 320 321 323 325
241 241 243 244 245 247 250 252 254 255 257 259 261 263 265 266 267 266 266 266 267 270 274 278 282 284 285 286 290 295 298 300 302 304 307 310 313 317 320 322 324 325
236 237 238 240 242 245 248 250 252 253 255 258 261 264 265 265 265 264 264 265 267 271 275 279 283 285 286 288 292 295 297 299 300 303 306 310 313 317 320 322 323 324
234 235 236 238 241 244 247 249 250 252 255 258 261 264 264 264 262 262 263 265 269 273 276 280 283 286 288 290 293 295 296 298 300 303 307 310 313 317 320 322 323 324
233 235 237 239 241 244 246 248 250 253 255 258 261 263 263 261 260 260 263 267 272 275 278 279 283 287 290 290 291 294 296 297 300 304 306 308 312 316 319 321 322 323
235 237 238 239 241 244 246 248 250 253 256 259 262 262 260 258 258 260 265 270 275 278 279 280 283 287 289 290 290 293 295 297 300 304 305 307 310 315 319 321 322 323
236 238 239 240 241 244 246 248 250 253 256 259 261 261 258 257 258 262 267 273 277 281 281 281 284 287 289 290 291 293 294 297 300 303 304 306 310 313 317 320 321 323
236 238 239 239 241 244 246 248 250 253 256 259 259 259 258 258 260 264 269 274 279 282 282 282 284 287 289 291 292 293 294 298 301 304 305 307 309 312 315 317 319 322
236 238 239 240 241 244 247 249 250 253 256 259 259 259 259 261 263 267 270 275 279 282 282 283 284 286 289 291 292 293 295 299 302 304 306 309 311 312 314 316 318 322
236 239 241 241 242 245 248 249 251 253 257 260 261 261 262 264 267 269 271 275 280 282 282 283 284 286 289 291 291 293 296 299 302 304 306 310 313 314 315 316 319 322
237 240 242 243 243 246 249 251 253 255 258 261 262 263 264 266 268 270 272 276 279 281 282 283 284 286 288 290 292 294 296 298 300 302 306 311 315 316 316 318 321 323
239 241 244 245 246 248 251 254 256 258 260 262 264 266 267 268 270 271 274 276 278 281 283 283 285 286 288 290 292 294 295 297 299 302 306 311 315 317 318 319 322 324
239 242 245 248 249 251 254 257 259 261 262 264 267 268 270 271 272 273 275 277 279 281 282 284 285 286 286 289 292 293 296 299 301 303 306 310 315 317 318 320 322 323
239 242 246 250 252 254 258 262 264 264 265 267 269 271 272 272 273 274 275 277 280 282 283 284 284 283 286 291 292 294 298 299 302 305 307 310 314 317 318 319 321 321
239 244 249 253 255 258 262 266 268 268 268 270 271 272 272 272 273 274 276 278 280 282 284 284 281 281 288 293 293 295 298 298 301 305 307 309 313 315 317 318 319 319
243 247 252 255 258 261 266 270 272 271 271 271 271 271 271 272 273 274 276 278 280 282 283 283 281 284 290 293 292 294 297 298 300 303 304 306 310 313 315 316 316 317
Height
10708 10709 10711 10713 10715 10716 10718 10719 10720 10721 10721 10721 10722 10723 10724 10724 10725 10724 10724 10724 10723 10722 10721 10719 10720 10723 10722 10717 10715 10713 10710 10709 10708 10706 10704 10702 10700 10698 10696 10693 10690 10687
10704 10706 10707 10709 10709 10711 10713 10714 10715 10716 10716 10717 10718 10719 10719 10719 10719 10720 10719 10719 10718 10717 10717 10715 10714 10715 10715 10713 10710 10709 10707 10705 10703 10702 10700 10698 10696 10693 10690 10688 10685 10683
10700 10702 10703 10704 10705 10706 10707 10709 10710 10710 10711 10712 10714 10714 10714 10714 10715 10715 10714 10714 10713 10712 10712 10712 10710 10709 10708 10706 10705 10704 10703 10701 10699 10697 10695 10693 10691 10688 10686 10683 10680 10678
10696 10698 10699 10700 10700 10701 10702 10703 10704 10706 10707 10708 10709 10709 10709 10710 10710 10710 10710 10709 10709 10708 10707 10707 10705 10704 10703 10701 10701 10700 10698 10696 10694 10692 10690 10688 10686 10683 10681 10679 10677 10674
10691 10693 10694 10695 10695 10696 10697 10699 10700 10701 10702 10703 10704 10704 10705 10705 10705 10705 10705 10705 10704 10703 10702 10701 10700 10700 10699 10698 10697 10695 10694 10692 10690 10688 10686 10684 10682 10679 10677 10675 10673 10670
10686 10687 10688 10690 10691 10692 10693 10695 10695 10696 10697 10698 10699 10699 10700 10701 10701 10701 10701 10700 10699 10698 10698 10697 10696 10695 10695 10694 10693 10691 10690 10688 10686 10684 10682 10680 10678 10676 10674 10671 10669 10666
10680 10681 10683 10685 10686 10687 10689 10690 10690 10691 10692 10693 10694 10695 10695 10696 10696 10696 10696 10696 10695 10694 10693 10692 10692 10692 10691 10690 10689 10688 10686 10684 10682 10681 10679 10677 10675 10673 10670 10668 10665 10662
10674 10676 10678 10680 10682 10683 10684 10685 10686 10687 10688 10688 10689 10690 10690 10691 10691 10692 10692 10691 10690 10689 10689 10688 10688 10688 10687 10687 10685 10684 10682 10680 10679 10677 10675 10673 10671 10669 10666 10663 10661 10658
10668 10671 10674 10675 10677 10678 10679 10680 10681 10683 10683 10683 10684 10685 10685 10686 10687 10687 10687 10686 10686 10685 10684 10684 10684 10684 10683 10682 10681 10680 10678 10676 10675 10673 10671 10669 10667 10665 10662 10659 10657 10654
10663 10666 10669 10670 10672 10673 10674 10675 10677 10678 10679 10679 10679 10680 10681 10681 10682 10682 10682 10682 10681 10681 10680 10680 10680 10679 10679 10678 10677 10676 10674 10672 10671 10669 10667 10665 10663 10661 10658 10655 10653 10650
10659 10662 10664 10665 10667 10668 10669 10671 10673 10674 10674 10674 10675 10676 10677 10677 10677 10677 10677 10677 10677 10676 10676 10676 10676 10675 10675 10674 10673 10671 10670 10668 10667 10665 10663 10661 10659 10657 10654 10651 10649 10646
10654 10657 10659 10661 10663 10664 10665 10667 10668 10669 10669 10670 10671 10672 10672 10672 10673 10672 10672 10673 10672 10672 10672 10672 10672 10671 10670 10669 10668 10667 10666 10664 10662 10661 10659 10657 10655 10653 10650 10648 10645 10642
10649 10652 10654 10657 10659 10660 10662 10663 10664 10664 10665 10666 10667 10668 10668 10668 10668 10668 10668 10668 10669 10669 10669 10668 10668 10667 10666 10665 10664 10662 10661 10659 10658 10657 10655 10653 10651 10649 10647 10644 10641 10638
10644 10647 10651 10654 10655 10657 10657 10658 10659 10660 10661 10662 10663 10664 10664 10664 10664 10664 10664 10665 10665 10665 10665 10665 10664 10663 10662 10661 10659 10658 10656 10655 10654 10652 10651 10649 10648 10645 10643 10640 10638 10635
10640 10644 10647 10650 10651 10652 10653 10654 10655 10656 10657 10659 10660 10660 10661 10661 10661 10661 10661 10661 10661 10661 10661 10661 10661 10660 10658 10657 10655 10654 10652 10651 10650 10649 10647 10646 10644 10642 10640 10637 10634 10632
10637 10640 10643 10646 10647 10648 10649 10650 10651 10652 10654 10655 10656 10657 10657 10657 10657 10657 10657 10657 10657 10658 10657 10657 10657 10656 10654 10653 10651 10650 10648 10647 10646 10645 10644 10642 10640 10638 10636 10633 10631 10628
10633 10636 10639 10642 10643 10643 10645 10647 10648 10649 10650 10651 10652 10653 10653 10653 10653 10653 10653 10654 10654 10654 10653 10653 10653 10651 10650 10649 10647 10646 10644 10643 10643 10641 10640 10639 10637 10635 10632 10630 10627 10625
10629 10632 10635 10637 10639 10640 10641 10643 10644 10645 10646 10647 10648 10649 10649 10649 10649 10649 10650 10650 10650 10650 10649 10649 10648 10647 10646 10644 10643 10642 10640 10639 10639 10637 10636 10634 10633 10631 10628 10626 10624 10621
10625 10628 10631 10633 10635 10636 10638 10640 10641 10642 10643 10643 10644 10645 10646 10645 10645 10646 10646 10646 10646 10646 10646 10645 10644 10643 10641 10640 10638 10637 10636 10635 10634 10633 10632 10630 10628 10627 10624 10622 10620 10617
10622 10624 10627 10630 10632 10633 10634 10636 10637 10638 10639 10639 10640 10641 10641 10642 10642 10642 10642 10642 10642 10642 10641 10641 10640 10638 10637 10635 10634 10633 10631 10631 10630 10628 10627 10626 10624 10622 10620 10618 10616 10612
10619 10621 10624 10626 10628 10630 10631 10632 10634 10635 10635 10635 10636 10637 10637 10638 10638 10638 10638 10638 10638 10638 10637 10636 10635 10634 10632 10631 10630 10628 10627 10626 10625 10624 10623 10621 10620 10618 10616 10614 10612 10608
10616 10618 10620 10623 10625 10626 10627 10629 10630 10631 10631 10632 10632 10632 10633 10633 10634 10634 10634 10634 10633 10633 10633 10632 10631 10629 10628 10627 10626 10624 10623 10622 10620 10619 10618 10617 10615 10614 10611 10609 10607 10605
10613 10615 10617 10619 10621 10622 10623 10625 10626 10627 10627 10628 10628 10628 10629 10629 10629 10629 10629 10629 10628 10628 10628 10628 10626 10624 10623 10623 10621 10620 10619 10617 10616 10615 10613 10612 10611 10609 10607 10605 10603 10600
10609 10612 10613 10615 10617 10618 10619 10621 10622 10623 10623 10624 10624 10624 10624 10624 10624 10624 10624 10624 10624 10624 10624 10623 10621 10620 10619 10618 10617 10616 10614 10613 10612 10610 10608 10607 10606 10605 10603 10601 10598 10596
10606 10608 10609 10611 10613 10614 10615 10616 10617 10619 10619 10619 10619 10619 10619 10619 10619 10619 10619 10619 10619 10619 10619 10618 10617 10616 10615 10614 10613 10611 10610 10608 10607 10605 10604 10602 10602 10601 10599 10597 10594 10592
10602 10604 10606 10607 10609 10610 10611 10612 10613 10615 10615 10615 10614 10614 10614 10614 10613 10613 10614 10614 10614 10614 10614 10613 10613 10612 10611 10610 10608 10607 10605 10604 10602 10600 10599 10598 10598 10597 10595 10592 10590 10587